Snowfall_Accumulation
2.6 7.1 9.1 4.6 3.6 2.9 2.8 2.8 2.6 1.4 0.5 0.7 0.9 0.8 0.2 0.1 0.0 0.0 0.2 0.0 0.0 0.0 0.0 0.0 0.0 0.0 0.0 0.0 0.0 0.0 0.0 0.0 0.0 0.0 0.0 0.0 0.0 0.0 0.0 0.0 0.0 0.0 0.0 0.0
5.7 7.2 3.4 1.4 1.7 2.8 3.9 4.5 3.1 1.4 0.7 0.8 1.1 0.8 0.3 0.1 0.1 0.1 0.0 0.0 0.0 0.0 0.0 0.0 0.0 0.0 0.0 0.0 0.0 0.0 0.0 0.0 0.0 0.0 0.0 0.0 0.0 0.0 0.0 0.0 0.0 0.0 0.0 0.0
6.4 3.3 0.8 1.9 3.1 4.3 4.4 4.2 2.9 2.4 1.6 1.2 2.0 2.1 0.7 0.3 0.2 0.3 0.3 0.2 0.0 0.0 0.0 0.0 0.0 0.0 0.0 0.0 0.0 0.0 0.0 0.0 0.0 0.0 0.0 0.0 0.0 0.0 0.0 0.0 0.0 0.0 0.0 0.0
3.6 1.0 1.2 2.8 3.3 3.9 5.4 2.0 1.8 2.4 4.0 5.2 3.9 6.5 1.5 0.6 0.3 0.2 0.3 0.3 0.1 0.1 0.0 0.0 0.0 0.0 0.0 0.0 0.0 0.0 0.0 0.0 0.0 0.0 0.0 0.0 0.0 0.0 0.0 0.0 0.0 0.0 0.0 0.0
4.5 1.4 2.0 3.9 2.5 2.3 3.0 1.0 1.6 2.8 4.6 6.7 3.4 6.3 2.1 0.6 0.9 1.1 0.3 0.3 0.3 0.1 0.0 0.0 0.0 0.0 0.0 0.0 0.0 0.0 0.0 0.0 0.0 0.0 0.0 0.0 0.0 0.0 0.0 0.0 0.0 0.0 0.0 0.0
2.9 0.7 1.3 2.1 0.9 1.3 1.4 1.8 2.4 3.6 7.3 15.2 5.3 5.3 3.1 1.9 2.1 1.3 0.5 0.3 0.2 0.2 0.1 0.0 0.0 0.0 0.0 0.0 0.0 0.0 0.0 0.0 0.0 0.0 0.0 0.0 0.0 0.0 0.0 0.0 0.0 0.0 0.0 0.0
5.9 2.7 1.3 1.0 2.9 2.3 3.4 9.1 22.0 25.1 24.6 13.6 2.3 3.3 3.4 1.8 1.5 1.7 0.8 0.2 0.2 0.2 0.2 0.1 0.0 0.0 0.0 0.0 0.0 0.0 0.0 0.0 0.0 0.0 0.0 0.0 0.0 0.0 0.0 0.0 0.0 0.1 0.1 0.1
9.5 8.7 2.3 1.0 2.5 5.1 4.5 6.9 14.5 16.8 12.7 5.6 2.4 3.1 2.5 1.2 0.7 0.9 0.4 0.2 0.2 0.1 0.2 0.1 0.1 0.0 0.1 0.0 0.0 0.0 0.0 0.0 0.0 0.0 0.0 0.0 0.0 0.0 0.0 0.0 0.1 0.1 0.1 0.0
9.7 7.5 2.0 0.7 0.8 2.3 5.9 6.4 4.3 8.4 7.1 4.7 3.6 2.6 1.9 0.6 0.6 0.5 0.6 0.5 0.4 0.3 0.1 0.2 0.0 0.0 0.1 0.1 0.0 0.0 0.0 0.0 0.0 0.0 0.0 0.0 0.0 0.0 0.0 0.0 0.1 0.1 0.1 0.0
9.8 8.7 3.1 1.4 1.3 1.8 3.3 4.3 7.2 12.5 11.6 6.7 3.5 2.5 2.7 1.9 1.2 0.6 0.7 0.7 0.5 0.5 0.2 0.1 0.0 0.0 0.1 0.1 0.0 0.0 0.0 0.0 0.0 0.0 0.0 0.0 0.0 0.0 0.0 0.1 0.1 0.1 0.0 0.1
8.0 9.8 7.1 3.9 5.7 6.1 5.3 7.4 9.9 11.1 9.3 8.3 5.3 3.6 3.0 2.3 1.5 1.2 0.9 0.9 0.7 0.4 0.3 0.2 0.1 0.0 0.0 0.1 0.1 0.1 0.0 0.1 0.0 0.0 0.0 0.0 0.0 0.0 0.0 0.1 0.1 0.2 0.1 0.1
8.1 10.7 9.9 5.7 2.7 2.8 4.5 7.3 8.8 13.2 10.6 6.3 5.9 4.5 2.1 1.6 1.3 1.1 0.9 0.9 0.9 0.6 0.5 0.4 0.2 0.1 0.0 0.1 0.1 0.2 0.1 0.1 0.0 0.0 0.0 0.0 0.1 0.0 0.1 0.2 0.2 0.2 0.2 0.2
11.5 14.2 14.8 9.7 5.7 4.0 5.8 6.3 7.2 8.3 9.3 7.4 6.6 4.6 1.8 1.1 0.9 0.8 0.8 0.8 0.9 0.8 0.6 0.5 0.4 0.2 0.2 0.3 0.3 0.3 0.3 0.2 0.1 0.0 0.0 0.0 0.2 0.1 0.2 0.2 0.2 0.2 0.3 0.2
10.7 16.0 12.3 11.3 8.7 8.5 8.2 6.2 6.0 8.5 11.7 8.0 5.1 3.9 2.9 2.2 1.8 1.4 0.9 0.9 1.0 1.0 1.0 0.8 0.5 0.5 0.4 0.4 0.4 0.4 0.4 0.4 0.5 0.4 0.2 0.3 0.4 0.4 0.5 0.3 0.5 1.0 1.6 1.6
11.7 14.4 6.6 3.8 3.7 4.3 5.3 4.7 4.8 6.4 6.7 6.4 3.9 3.4 3.8 2.9 2.3 1.9 1.4 1.2 1.1 1.2 1.2 1.2 1.0 0.8 0.6 0.4 0.4 0.5 0.5 0.5 0.6 0.7 0.5 0.6 0.7 1.3 0.8 0.6 0.7 1.2 1.8 2.5
12.0 13.2 6.6 3.8 2.4 3.0 4.0 3.2 2.9 3.3 3.4 3.9 3.4 4.1 3.1 2.2 1.7 1.7 1.7 1.5 1.6 1.7 1.7 1.6 1.5 1.3 1.1 1.0 0.6 0.5 0.5 0.7 0.7 0.8 0.7 0.9 1.3 2.0 1.9 0.8 0.8 1.1 1.7 2.3
11.5 11.6 10.4 6.8 2.9 4.4 6.5 3.9 3.1 3.3 3.2 3.5 4.3 4.6 3.3 2.6 2.1 2.1 1.9 2.0 1.8 2.0 2.0 1.9 2.0 2.0 1.7 1.4 1.4 1.2 0.9 0.7 0.6 0.9 1.0 1.3 1.5 2.1 2.1 2.0 1.8 2.1 2.7 2.6
9.4 10.7 13.4 10.2 7.5 10.9 5.0 2.7 2.5 2.8 3.5 3.3 3.8 3.8 3.2 2.9 2.7 2.3 2.1 2.2 2.3 2.2 2.0 2.0 2.1 2.1 1.8 1.8 1.7 1.5 1.4 1.0 0.8 0.9 1.2 1.4 1.7 2.1 1.8 1.5 2.0 2.3 1.9 1.8
4.5 10.0 15.3 13.5 10.4 6.1 2.9 2.4 3.0 3.6 4.6 3.6 3.2 3.2 2.5 2.3 2.3 2.5 2.0 2.0 2.3 2.1 1.9 2.0 1.9 1.9 1.4 1.4 1.6 1.6 1.3 1.3 1.1 1.1 1.2 1.5 1.7 2.1 1.8 1.6 1.4 1.6 1.5 1.4
4.4 8.5 15.6 14.3 11.2 6.0 3.3 1.8 1.9 2.9 5.4 3.2 2.7 3.0 2.7 2.5 4.1 4.0 2.7 2.1 2.0 1.7 1.6 1.6 1.5 1.4 1.0 0.9 1.0 1.0 1.1 1.2 1.5 1.4 1.6 1.3 1.3 1.6 1.2 1.1 0.8 0.6 0.7 1.5
8.9 13.0 14.9 11.9 9.3 4.3 2.7 1.8 1.5 5.6 7.3 3.1 2.7 2.9 2.7 3.3 4.5 3.8 2.7 2.2 2.0 2.0 1.7 1.6 1.5 1.6 1.3 0.8 0.8 0.9 0.7 0.9 1.1 1.2 1.3 1.0 1.0 1.0 0.6 0.9 0.6 0.7 1.0 1.1
6.1 8.8 9.5 8.9 9.8 5.4 2.5 2.7 5.0 6.0 2.8 2.5 2.6 2.4 2.6 2.5 2.3 2.2 2.3 2.3 1.9 2.1 1.7 1.5 1.6 1.7 1.4 1.3 1.2 1.1 1.0 0.9 0.9 1.4 1.6 1.3 1.1 0.9 0.9 1.5 1.3 1.1 1.2 1.3
4.4 5.7 6.1 6.2 5.5 4.0 3.0 3.3 3.2 2.3 2.3 2.2 2.4 2.4 2.4 2.5 2.3 2.2 2.0 2.0 1.8 1.9 1.6 1.5 1.7 1.9 1.5 1.3 1.4 1.5 1.2 1.1 1.2 1.5 1.3 1.1 0.9 0.9 1.1 1.5 1.8 1.5 1.7 2.2
3.4 3.0 4.0 3.9 3.2 2.7 2.5 2.5 2.2 1.9 2.1 1.9 2.0 2.4 2.3 2.4 2.2 2.1 1.8 1.9 1.8 1.8 1.5 1.4 1.6 2.0 2.1 1.9 1.9 1.7 1.6 1.5 1.5 1.6 1.1 0.8 0.9 0.9 1.0 1.2 1.8 2.4 2.7 3.5
3.0 2.8 3.6 3.5 2.6 2.1 1.8 1.9 2.0 2.1 1.7 1.6 1.6 2.0 2.1 2.1 2.1 2.0 1.9 1.9 1.9 1.8 1.4 1.4 1.6 1.9 2.0 1.9 1.9 1.7 2.1 2.0 1.8 1.6 1.4 1.0 1.0 0.9 1.1 1.2 1.5 2.4 2.7 4.5
2.3 2.9 3.6 3.3 2.1 2.4 2.1 1.4 1.5 1.8 1.7 1.5 1.7 2.0 1.7 1.8 2.1 2.0 1.9 1.7 1.7 1.7 1.6 1.4 1.5 1.8 1.7 1.9 2.0 1.9 2.2 2.5 2.8 2.2 1.8 1.5 1.6 1.2 1.1 1.3 1.6 1.4 2.0 2.3